Baltimore Martin, MD

4:12 PM EDT on June 26, 2017 (GMT -0400)
Martin State

Weather History for KMTN - March, 2013

Change the Weather History Date:

Saturday, March 30, 2013

  Actual Average Record
Temperature  
Mean Temperature 44 °F -  
Max Temperature 57 °F 55 °F 78 °F (1998)
Min Temperature 32 °F 39 °F 32 °F (2008)
Degree Days  
Heating Degree Days 20    
Moisture  
Dew Point 31 °F    
Average Humidity 65    
Maximum Humidity 87    
Minimum Humidity 35    
Precipitation  
Precipitation 0.00 in - - ()
Sea Level Pressure  
Sea Level Pressure 30.19 in    
Wind  
Wind Speed 1 mph (SSE)    
Max Wind Speed 10 mph    
Max Gust Speed -    
Visibility 10 miles    
Events      
Averages and records for this station are not official NWS values.
T = Trace of Precipitation, MM = Missing Value Source: NWS Daily Summary

Daily Weather History Graph

Daily Weather History Graph

Search for Another Location

Airport or City:

Trip Planner

Search our weather history database for the weather conditions in past years. The results will help you decide how hot, cold, wet, or windy it might be!

Date:

Astronomy

Mar. 30, 2013 Rise Set
Actual Time 6:52 AM EDT 7:27 PM EDT
Civil Twilight 6:25 AM EDT 7:54 PM EDT
Nautical Twilight 5:54 AM EDT 8:26 PM EDT
Astronomical Twilight 5:21 AM EDT 8:59 PM EDT
Moon 11:30 PM EDT (3/30) 8:47 AM EDT (3/30)
Length of Visible Light 13h 28m
Length of Day
12h 34m
Waning Gibbous, 86% of the Moon is Illuminated
Mar 30
Waning Gibbous
Apr 3
Last Quarter
Apr 10
New
Apr 18
First Quarter
Apr 25
Full

Hourly Weather History & Observations

Time (EDT) Temp. Windchill Dew Point Humidity Pressure Visibility Wind Dir Wind Speed Gust Speed Precip Events Conditions
12:15 AM 42.8 °F - 30.2 °F 61% 30.20 in 10.0 mi Calm Calm - N/A   Mostly Cloudy
12:36 AM 42.8 °F - 32.0 °F 66% 30.20 in 10.0 mi Calm Calm - N/A   Overcast
1:15 AM 41.0 °F - 32.0 °F 70% 30.20 in 10.0 mi Calm Calm - N/A   Mostly Cloudy
1:36 AM 41.0 °F - 32.0 °F 70% 30.20 in 10.0 mi Calm Calm - N/A   Overcast
1:54 AM 39.2 °F - 33.8 °F 81% 30.20 in 10.0 mi Calm Calm - N/A   Mostly Cloudy
2:15 AM 39.2 °F - 32.0 °F 75% 30.21 in 10.0 mi Calm Calm - N/A   Scattered Clouds
2:36 AM 39.2 °F - 32.0 °F 75% 30.20 in 10.0 mi Calm Calm - N/A   Scattered Clouds
2:57 AM 37.4 °F - 32.0 °F 81% 30.20 in 10.0 mi Calm Calm - N/A   Mostly Cloudy
3:15 AM 39.2 °F - 32.0 °F 75% 30.20 in 10.0 mi Calm Calm - N/A   Mostly Cloudy
3:36 AM 37.4 °F - 32.0 °F 81% 30.20 in 10.0 mi Calm Calm - N/A   Scattered Clouds
3:57 AM 37.4 °F - 32.0 °F 81% 30.20 in 10.0 mi Calm Calm - N/A   Clear
4:15 AM 35.6 °F - 32.0 °F 87% 30.20 in 10.0 mi Calm Calm - N/A   Clear
4:36 AM 35.6 °F 32.8 °F 32.0 °F 87% 30.20 in 10.0 mi West 3.5 mph - N/A   Clear
4:57 AM 35.6 °F - 32.0 °F 87% 30.20 in 10.0 mi Calm Calm - N/A   Clear
5:15 AM 33.8 °F - 30.2 °F 87% 30.20 in 10.0 mi Calm Calm - N/A   Clear
6:55 AM 32.0 °F 28.7 °F 28.4 °F 87% 30.22 in 7.0 mi WNW 3.5 mph - N/A   Mostly Cloudy
7:50 AM 37.4 °F 33.8 °F 30.2 °F 75% 30.23 in 10.0 mi West 4.6 mph - N/A   Mostly Cloudy
8:45 AM 41.0 °F - 33.8 °F 76% 30.24 in 10.0 mi Calm Calm - N/A   Mostly Cloudy
9:50 AM 50.0 °F - 28.4 °F 43% 30.24 in 10.0 mi Calm Calm - N/A   Scattered Clouds
10:45 AM 53.6 °F - 26.6 °F 35% 30.24 in 10.0 mi Calm Calm - N/A   Partly Cloudy
11:55 AM 55.4 °F - 33.8 °F 44% 30.22 in 10.0 mi SE 4.6 mph - N/A   Partly Cloudy
12:45 PM 53.6 °F - 28.4 °F 38% 30.20 in 10.0 mi East 6.9 mph - N/A   Scattered Clouds
1:45 PM 55.4 °F - 33.8 °F 44% 30.17 in 10.0 mi SE 9.2 mph - N/A   Scattered Clouds
2:45 PM 57.2 °F - 32.0 °F 38% 30.16 in 10.0 mi SE 10.4 mph - N/A   Partly Cloudy
3:45 PM 57.2 °F - 32.0 °F 38% 30.14 in 10.0 mi SE 10.4 mph - N/A   Partly Cloudy
4:45 PM 57.2 °F - 30.2 °F 36% 30.14 in 10.0 mi SE 10.4 mph - N/A   Partly Cloudy
5:45 PM 55.4 °F - 30.2 °F 38% 30.13 in 10.0 mi SE 9.2 mph - N/A   Partly Cloudy
6:55 PM 53.6 °F - 30.2 °F 41% 30.14 in 10.0 mi SSE 6.9 mph - N/A   Clear
8:55 PM 50.0 °F - 28.4 °F 43% 30.16 in 10.0 mi South 4.6 mph - N/A   Clear
9:45 PM 44.6 °F - 32.0 °F 61% 30.16 in 10.0 mi Calm Calm - N/A   Clear
10:18 PM 42.8 °F - 32.0 °F 66% 30.16 in 10.0 mi Calm Calm - N/A   Clear
10:39 PM 41.0 °F - 33.8 °F 76% 30.16 in 10.0 mi Calm Calm - N/A   Clear
10:57 PM 41.0 °F - 32.0 °F 70% 30.16 in 10.0 mi Calm Calm - N/A   Clear
11:18 PM 39.2 °F - 32.0 °F 75% 30.15 in 10.0 mi Calm Calm - N/A   Clear
11:39 PM 39.2 °F - 32.0 °F 75% 30.15 in 10.0 mi Calm Calm - N/A   Clear
11:57 PM 41.0 °F - 32.0 °F 70% 30.15 in 10.0 mi Calm Calm - N/A   Clear